Weather in Konakovo

Russia / Tver Oblast     56°42′47″N   36°46′45″E
temp.,
°C
wind,
m/s
gust,
m/s
humid.,
%
clouds,
%
prec.,
mm/h
press.,
hPa
HPBL,
m
8 may, sat
sat800:00+5sse3883100 0.0 1011165
03:00+6sse31381100 0.0 1010324
06:00+6se31193100 0.8 1009765
09:00+8sse61292100 1.3 1008875
12:00+8se51295100 3.1 1006977
15:00+8ese2798100 8.3 1004448
18:00+7nnw2498100 4.1 1002130
21:00+7nnw4997100 5.9 1002745
9 may, sun
sun900:00+6nw61295100 1.2 10021158
03:00+3nw61497100 4.6 1005763
06:00+3nw61292100 1.1 1008887
09:00+4nw51086100 1.3 10111155
12:00+9nnw5105686 0.1 10131804
15:00+12nw6940100 0.1 10152476
18:00+11nw484753 0.0 10182321
21:00+5wnw310700 0.0 1021180
10 may, mon
mon1000:00+3wnw26760 0.0 102499
03:00+2nw12765 0.0 102711
06:00+3sw22735 0.0 102864
09:00+10sw245156 0.0 1029475
12:00+14sw35395 0.0 10281763
15:00+16wsw344058 0.0 10281727
18:00+14wsw23576 0.0 1028500
21:00+9ssw22745 0.0 103012
11 may, tue
tue1100:00+7ssw22795 0.0 103010
03:00+6s11825 0.0 103110
06:00+7sse23781 0.0 103277
09:00+14sse23535 0.0 1032513
12:00+17se344412 0.0 10311199
15:00+19ese33435 0.0 10291389
18:00+18ese345592 0.0 1029798
21:00+11ese377796 0.0 1029129
12 may, wed
wed1200:00+9ese22825 0.0 102938
03:00+7ese24840 0.0 102968
06:00+8e26810 0.0 1029166
09:00+15e4755100 0.0 1027543
12:00+20e57490 0.0 10261057
15:00+22ese575058 0.0 10251535
18:00+20ese47616 0.0 10241303
21:00+14ene399038 0.0 1024203